Time[GMT],current_u[cm/s](10m),current_v[cm/s](10m),current_u[cm/s](14m),current_v[cm/s](14m),current_u[cm/s](18m),current_v[cm/s](18m),current_u[cm/s](22m),current_v[cm/s](22m),current_u[cm/s](26m),current_v[cm/s](26m),current_u[cm/s](30m),current_v[cm/s](30m),current_u[cm/s](34m),current_v[cm/s](34m),current_u[cm/s](38m),current_v[cm/s](38m),current_u[cm/s](42m),current_v[cm/s](42m),current_u[cm/s](46m),current_v[cm/s](46m),current_u[cm/s](50m),current_v[cm/s](50m),current_u[cm/s](54m),current_v[cm/s](54m),current_u[cm/s](58m),current_v[cm/s](58m),current_u[cm/s](62m),current_v[cm/s](62m),current_u[cm/s](66m),current_v[cm/s](66m),current_u[cm/s](70m),current_v[cm/s](70m),current_u[cm/s](74m),current_v[cm/s](74m),current_u[cm/s](78m),current_v[cm/s](78m),current_u[cm/s](82m),current_v[cm/s](82m),current_u[cm/s](86m),current_v[cm/s](86m),current_u[cm/s](90m),current_v[cm/s](90m)
2007-05-10 08:00,-7.32,16.03,-8.66,14.98,-7.23,15.75,-8.17,11.14,-7.18,7.05,-5.00,7.43,-4.66,6.38,-6.78,3.82,-7.12,4.23,-5.74,6.15,-4.51,5.91,-3.71,6.69,-1.90,4.96,-0.36,4.08,1.38,4.22,2.04,3.80,1.60,3.55,3.30,3.47,3.43,3.40,2.71,4.01,2.29,3.35
2007-05-10 09:00,-3.34,8.17,-1.57,7.89,-3.07,7.00,-4.94,-0.32,-1.67,-1.69,-2.36,-1.17,-5.09,-2.46,-7.99,-3.91,-8.15,-4.07,-6.02,-3.18,-1.37,-3.27,-0.74,-3.60,-0.62,-4.29,1.33,-5.14,1.37,-6.91,2.02,-7.65,3.49,-6.65,1.77,-7.52,1.33,-7.45,0.55,-6.33,-1.28,-6.18
2007-05-10 10:00,-2.27,-9.02,-5.64,-10.93,-4.66,-10.41,-8.76,-14.66,-9.50,-13.32,-11.36,-12.76,-11.93,-13.26,-12.45,-13.95,-13.43,-14.15,-13.75,-14.15,-12.84,-15.02,-9.19,-16.58,-5.79,-17.38,-3.86,-17.50,-2.17,-18.54,-1.25,-18.45,-1.51,-19.27,-1.73,-19.24,-1.98,-19.11,-3.02,-18.49,-3.54,-16.87
2007-05-10 11:00,-4.96,-19.01,-10.61,-18.71,-8.84,-13.74,-14.09,-18.35,-16.36,-20.13,-16.67,-17.50,-16.40,-13.42,-18.12,-11.97,-16.80,-15.12,-13.91,-16.61,-12.40,-17.71,-10.83,-18.36,-8.86,-17.94,-8.28,-17.13,-8.67,-15.26,-8.43,-16.34,-7.68,-16.73,-6.11,-17.70,-6.34,-18.61,-8.27,-18.49,-11.02,-18.11
2007-05-10 12:00,-8.07,-32.28,-13.57,-30.15,-13.58,-18.30,-22.57,-26.31,-26.58,-25.59,-23.64,-20.98,-18.52,-16.62,-17.65,-17.39,-17.37,-22.86,-14.61,-24.92,-14.07,-24.01,-14.49,-23.00,-14.86,-22.17,-14.34,-23.47,-14.13,-24.45,-12.89,-25.74,-12.46,-27.39,-11.15,-28.54,-10.78,-29.37,-11.04,-30.19,-10.74,-26.52
2007-05-10 13:00,2.63,-19.42,-1.08,-17.98,-4.29,-11.24,-7.47,-12.78,-9.87,-12.81,-9.01,-9.91,-7.46,-7.21,-7.59,-7.78,-8.17,-10.58,-7.74,-11.60,-6.72,-13.16,-5.15,-14.13,-2.77,-16.00,-1.26,-17.09,0.59,-17.97,1.66,-18.68,2.47,-19.26,2.12,-19.79,0.89,-19.56,-0.75,-19.35,0.34,-15.53
2007-05-10 14:00,-2.73,-25.64,-3.91,-16.36,-6.36,-10.01,-6.97,-11.04,-6.34,-11.05,-3.97,-8.93,-2.98,-8.09,-4.55,-9.43,-7.52,-11.64,-8.52,-11.12,-8.24,-11.03,-8.46,-11.31,-9.38,-11.39,-9.73,-11.61,-9.84,-12.59,-10.32,-13.37,-12.64,-13.69,-11.44,-14.46,-8.67,-15.26,-5.35,-15.46,-2.54,-12.78
2007-05-10 15:00,-2.82,-22.42,-1.62,-15.00,-1.04,-4.95,-0.77,-5.49,-0.34,-4.20,-0.03,-5.15,1.85,-6.44,2.72,-7.21,0.72,-7.85,-0.95,-7.23,-2.08,-6.65,-2.51,-5.94,-2.97,-4.52,-2.70,-3.70,-2.45,-3.83,-1.38,-3.90,-0.71,-5.68,1.42,-7.42,1.83,-8.02,2.42,-8.57,4.17,-7.49
2007-05-10 16:00,-3.09,-6.76,-3.38,-1.92,-2.76,-0.57,-3.88,3.28,-2.22,4.33,0.70,2.43,1.30,0.20,0.19,0.06,0.78,1.51,0.64,2.93,0.14,3.51,-0.32,4.62,0.49,6.35,1.18,8.46,1.69,8.83,2.51,7.94,3.42,5.08,4.49,2.06,4.73,1.30,3.65,0.74,4.52,-0.03
2007-05-10 17:00,9.41,8.67,10.44,12.99,8.52,13.11,11.23,19.75,10.18,21.72,12.02,24.83,13.53,24.37,11.27,20.92,10.70,15.80,9.59,12.72,6.77,10.35,4.01,11.78,3.52,13.30,3.41,14.31,2.90,14.26,3.80,12.44,4.85,10.47,5.35,7.90,6.69,6.33,7.80,6.79,7.65,4.96
2007-05-10 18:00,2.72,4.96,7.03,5.60,6.68,5.70,6.84,10.79,6.94,18.38,6.94,21.01,6.19,16.46,6.28,11.56,5.72,9.38,5.12,9.93,3.44,11.59,1.10,14.00,1.93,17.62,3.30,20.26,3.55,22.44,4.55,21.61,3.82,19.59,3.77,17.47,4.06,15.57,4.51,14.14,4.14,12.34
2007-05-10 19:00,-2.25,7.05,2.91,5.02,4.88,6.07,1.18,12.76,2.22,20.34,1.70,21.96,1.96,22.14,2.27,16.89,1.95,11.64,2.91,7.65,3.95,4.72,3.00,4.42,3.45,4.98,2.85,5.53,2.72,7.27,3.53,8.68,4.83,8.89,5.32,7.68,5.02,6.96,4.31,5.57,4.32,3.90
2007-05-10 20:00,-8.38,2.26,-4.59,1.89,-1.92,8.31,-2.27,13.03,-1.05,14.47,-2.26,13.66,-2.93,10.82,-4.00,8.59,-3.50,6.02,-0.76,5.01,0.46,3.82,0.08,3.70,1.43,2.76,2.81,2.05,4.04,1.81,4.84,2.91,6.46,3.43,6.94,3.26,6.34,3.81,6.27,3.37,6.32,2.23
2007-05-10 21:00,-8.85,0.43,-8.92,-0.01,-6.15,3.49,-2.67,8.70,0.62,11.22,3.71,12.73,3.10,12.64,-0.14,8.67,-3.04,4.28,-4.13,1.10,-3.07,-0.56,-3.46,-1.00,-4.04,0.49,-4.52,0.34,-2.54,-0.92,-1.08,-0.56,-0.07,-0.44,0.75,-0.39,1.84,0.17,2.79,0.47,3.48,-0.04
2007-05-10 22:00,-8.96,4.07,-5.60,4.40,-3.69,3.34,-2.98,6.71,-0.00,7.24,2.55,6.48,2.13,3.51,-1.47,1.00,-4.90,-2.09,-7.46,-2.28,-8.62,-3.91,-6.98,-4.12,-5.20,-6.07,-2.28,-7.66,-0.57,-7.74,0.02,-8.60,-0.65,-9.13,-0.91,-9.63,-1.14,-9.60,-0.53,-8.88,-0.77,-8.12
2007-05-10 23:00,-8.92,-12.50,-7.14,-11.83,-5.32,-8.00,-6.47,-11.30,-6.51,-11.84,-6.91,-13.23,-9.56,-12.81,-12.49,-12.49,-14.13,-11.65,-15.72,-12.26,-15.83,-13.87,-14.47,-16.16,-12.43,-19.61,-10.68,-21.78,-7.89,-23.30,-6.02,-23.23,-5.59,-24.25,-5.66,-24.37,-7.20,-23.82,-8.72,-23.67,-9.58,-21.95
2007-05-11 00:00,-8.88,-19.21,-8.31,-19.03,-6.98,-16.29,-9.42,-21.48,-9.36,-19.68,-11.38,-16.65,-11.99,-15.06,-13.93,-15.57,-16.13,-15.23,-16.67,-17.18,-15.32,-18.43,-13.93,-20.82,-12.93,-23.96,-11.62,-25.44,-10.85,-25.19,-11.54,-24.68,-11.68,-22.62,-13.18,-21.53,-14.22,-21.54,-15.08,-21.82,-15.10,-21.09
2007-05-11 01:00,-14.02,-20.53,-13.60,-20.19,-11.84,-17.84,-14.43,-20.56,-15.01,-21.06,-13.67,-20.63,-12.90,-19.13,-10.07,-15.49,-8.29,-12.83,-8.43,-11.09,-9.90,-12.08,-10.49,-16.47,-11.24,-20.70,-9.43,-24.74,-9.58,-26.57,-10.57,-27.73,-10.34,-29.12,-11.34,-28.60,-12.21,-27.52,-11.02,-25.98,-8.92,-22.37
2007-05-11 02:00,4.71,-17.07,0.20,-16.42,-4.81,-14.87,-9.40,-15.60,-10.03,-15.27,-9.31,-15.57,-7.85,-15.52,-6.60,-14.18,-5.21,-11.63,-5.57,-10.18,-6.41,-9.18,-8.53,-9.13,-10.79,-9.95,-12.38,-11.19,-12.49,-12.49,-12.82,-13.12,-12.20,-14.39,-12.37,-14.86,-11.69,-16.33,-9.80,-16.67,-7.78,-15.08
2007-05-11 03:00,-5.20,-10.69,-7.71,-12.01,-7.76,-8.57,-7.48,-8.79,-6.51,-7.22,-8.85,-6.81,-9.22,-6.62,-11.40,-10.67,-14.27,-12.85,-14.87,-12.93,-14.81,-13.44,-14.71,-12.78,-14.55,-12.62,-13.84,-13.55,-14.00,-14.02,-14.87,-14.93,-15.90,-14.31,-14.72,-13.09,-11.54,-14.18,-8.37,-13.59,-6.13,-14.03
2007-05-11 04:00,1.54,-15.36,0.31,-7.56,-2.36,-4.11,-5.60,-5.46,-2.76,-2.87,-0.74,-0.65,-1.79,0.69,-2.86,1.71,-3.27,1.37,-3.99,1.98,-4.78,2.46,-4.99,2.82,-5.24,2.95,-6.40,3.94,-7.55,5.88,-8.11,6.65,-8.37,6.15,-8.86,4.73,-9.07,3.09,-6.94,1.35,-4.52,0.34
2007-05-11 05:00,0.64,-3.99,-1.11,2.16,-3.29,2.10,-3.44,5.52,-0.03,5.03,2.03,5.48,1.50,6.15,2.52,6.58,2.67,8.09,2.43,9.17,1.08,10.11,-2.07,11.41,-3.10,12.34,-2.99,13.32,-2.98,14.27,-2.13,13.59,-0.03,12.27,0.47,9.70,0.68,8.72,1.17,7.20,1.84,5.42
2007-05-11 06:00,3.13,11.91,5.45,13.50,4.11,14.75,2.17,16.54,-0.42,16.77,-1.90,14.83,-2.53,14.83,-1.78,13.81,-1.06,13.83,-1.07,14.88,-1.80,15.17,-2.14,15.27,-2.12,16.85,-2.91,17.34,-3.19,17.88,-1.96,17.64,-0.66,17.85,-0.04,16.89,-0.19,14.74,-0.28,12.40,0.07,10.31
2007-05-11 07:00,2.70,10.62,5.52,13.31,4.88,17.93,5.66,22.38,5.77,23.36,2.70,22.80,1.51,21.26,2.41,22.39,3.49,22.95,5.12,24.10,6.25,23.51,8.00,22.29,10.91,22.38,12.66,22.83,12.38,23.05,12.22,22.90,12.53,22.58,11.72,21.17,11.38,19.27,11.10,16.87,10.88,14.91
2007-05-11 08:00,-6.49,7.17,-3.00,7.76,-0.96,11.24,-1.20,20.19,0.26,25.17,2.45,25.87,3.19,24.53,2.49,24.10,0.41,24.38,-1.70,22.44,-2.53,19.77,0.18,16.85,4.85,15.72,5.47,15.08,7.02,12.53,8.00,12.10,8.32,12.42,9.28,11.04,10.40,9.20,10.47,7.33,11.11,5.64
2007-05-11 09:00,-2.91,0.23,-0.16,7.09,3.29,12.07,8.15,13.94,8.08,13.81,7.90,14.07,6.73,11.80,4.39,11.90,3.52,10.68,2.60,8.28,3.40,6.44,3.46,8.56,2.60,7.65,5.25,7.24,7.08,4.46,7.49,4.17,7.59,4.84,6.62,3.58,6.98,1.81,7.09,0.79,7.05,-0.38
2007-05-11 10:00,-6.95,0.72,-4.54,1.39,0.19,0.38,6.35,2.13,8.96,5.48,5.39,6.13,3.67,5.27,3.23,5.33,3.72,4.13,3.76,2.36,3.01,0.12,2.31,-2.62,1.60,-3.69,0.83,-4.25,1.08,-4.38,1.41,-3.43,1.46,-4.26,1.69,-6.60,1.96,-7.77,1.57,-8.21,0.33,-8.61
2007-05-11 11:00,-9.09,-6.37,-9.28,-3.49,-8.17,-3.03,-7.88,-0.63,-7.80,0.76,-9.49,0.12,-9.63,-3.39,-10.37,-4.67,-11.40,-6.05,-12.53,-7.78,-10.97,-9.69,-11.18,-11.34,-12.19,-13.13,-11.22,-14.18,-10.39,-13.50,-10.52,-14.06,-11.02,-16.11,-11.44,-16.77,-12.07,-16.13,-13.35,-14.76,-14.09,-13.73
2007-05-11 12:00,-5.23,-17.83,-5.92,-15.33,-4.39,-6.96,-4.16,-13.29,-1.93,-12.37,-3.02,-15.87,-4.64,-19.33,-5.49,-18.97,-4.69,-20.81,-5.20,-23.18,-5.01,-25.74,-5.15,-26.94,-4.54,-25.91,-4.94,-27.93,-5.75,-29.34,-6.58,-29.71,-8.08,-28.30,-9.13,-26.64,-9.85,-25.40,-10.53,-24.56,-10.44,-22.54
2007-05-11 13:00,-12.70,-18.75,-8.62,-16.08,-3.64,-5.05,-6.98,-16.92,-7.85,-20.14,-7.33,-19.13,-6.68,-17.56,-7.45,-16.44,-8.40,-16.12,-8.65,-18.61,-7.61,-21.22,-6.16,-24.11,-4.52,-24.64,-5.24,-26.02,-5.53,-26.43,-6.70,-26.70,-7.43,-27.04,-6.88,-26.13,-6.23,-24.87,-6.28,-23.42,-5.43,-21.47
2007-05-11 14:00,-12.84,-21.94,-9.75,-23.06,-6.06,-13.58,-5.91,-19.31,-3.26,-17.73,-3.76,-19.46,-4.19,-21.07,-5.68,-21.34,-5.53,-21.50,-4.75,-22.61,-5.91,-26.55,-7.71,-29.44,-9.40,-30.08,-10.20,-30.55,-11.29,-31.73,-11.80,-32.42,-12.94,-32.79,-12.76,-33.36,-12.60,-30.58,-11.72,-28.72,-8.19,-24.66
2007-05-11 15:00,-2.65,-9.45,-4.96,-9.14,-4.90,-5.03,0.40,-13.10,0.41,-10.16,-0.27,-9.01,-1.14,-12.22,-2.25,-12.68,-3.62,-11.02,-4.86,-11.42,-4.48,-13.92,-5.40,-16.63,-7.20,-19.20,-8.95,-19.33,-12.43,-19.61,-14.05,-20.76,-11.79,-21.61,-10.11,-21.28,-6.15,-21.17,-3.04,-20.07,-0.84,-16.12
2007-05-11 16:00,-4.33,0.09,-3.11,-3.09,-2.33,-3.89,-1.87,-10.25,-1.33,-9.66,-1.85,-8.67,-2.60,-5.66,-2.43,-4.55,-4.76,-6.14,-6.66,-6.75,-8.46,-6.06,-9.80,-4.49,-10.18,-2.30,-9.15,-0.93,-8.31,-4.23,-7.35,-6.23,-5.47,-7.52,-2.95,-8.18,-1.53,-8.04,-0.04,-8.10,0.80,-6.78
2007-05-11 17:00,10.71,6.88,12.60,8.54,11.81,6.08,15.02,7.21,15.98,8.14,14.90,7.90,13.20,6.00,11.16,2.51,7.95,1.07,5.43,2.05,3.35,2.65,1.75,5.39,-0.94,7.89,-3.26,9.56,-4.68,10.05,-3.99,9.22,-1.92,7.99,-1.07,5.64,-0.61,4.53,1.26,4.28,1.92,3.87
2007-05-11 18:00,13.90,11.36,16.73,14.68,12.02,12.65,18.82,25.22,17.09,25.71,13.17,23.20,7.98,18.40,3.51,16.97,2.29,18.16,0.38,19.54,-0.10,21.70,-1.39,25.07,-1.44,25.89,-1.16,25.35,0.51,22.73,2.02,19.33,3.35,16.81,3.83,14.97,4.94,13.12,5.69,12.10,5.74,10.96
2007-05-11 19:00,11.36,5.52,15.92,8.65,11.10,9.95,17.08,17.52,17.08,22.14,13.33,23.04,9.51,21.51,7.51,20.56,4.39,19.14,2.21,17.08,3.61,17.95,2.97,19.63,2.38,20.18,1.88,20.44,1.62,22.88,2.97,22.26,4.53,20.02,6.29,16.81,6.61,14.49,7.15,12.78,6.73,11.49
2007-05-11 20:00,-1.97,4.52,0.34,6.51,1.11,5.39,8.65,13.68,10.83,18.05,10.89,18.49,9.63,18.19,11.33,15.79,10.17,13.85,8.08,13.18,7.13,13.51,4.43,14.74,3.55,15.20,3.81,16.02,4.98,15.65,7.48,16.35,9.48,16.36,9.05,15.06,8.28,14.19,8.64,12.73,8.54,10.07
2007-05-11 21:00,5.86,5.65,6.53,8.49,7.75,12.23,8.20,7.86,7.44,8.25,6.88,11.33,5.63,12.29,4.07,11.90,2.76,12.74,1.00,13.65,0.22,14.45,0.16,15.27,1.42,14.62,3.73,14.31,4.79,13.28,6.85,11.42,9.72,10.66,10.02,9.39,10.79,7.64,11.03,6.56,11.20,5.04
2007-05-11 22:00,-8.25,20.25,-7.22,19.32,-3.95,14.69,-3.54,10.10,-1.98,10.49,-0.24,11.26,0.43,8.53,0.56,6.79,1.50,3.84,2.15,2.15,2.13,3.20,2.22,3.23,1.44,3.40,0.45,3.19,0.82,2.68,0.44,-0.07,1.05,-1.66,1.88,-3.91,2.70,-6.17,2.85,-6.96,1.86,-7.49
2007-05-11 23:00,-1.02,4.50,-0.15,5.41,0.01,5.88,-1.47,8.56,-2.20,8.85,-1.90,6.95,-3.07,2.38,-3.59,-1.57,-4.06,-3.40,-3.63,-2.10,-0.86,-0.59,1.36,0.01,1.82,1.21,1.46,0.68,1.32,-0.84,1.66,-1.57,2.29,-4.20,2.58,-5.79,2.02,-7.33,1.05,-7.22,-0.27,-6.07
2007-05-12 00:00,-4.55,-7.44,-5.43,-9.29,-6.29,-9.25,-8.92,-12.50,-9.59,-12.72,-10.26,-13.25,-11.32,-12.22,-10.81,-9.22,-10.32,-8.44,-9.62,-10.00,-7.41,-10.66,-5.44,-9.61,-3.70,-9.47,-3.01,-10.62,-3.31,-11.66,-2.74,-14.10,-2.90,-16.25,-2.98,-17.96,-3.55,-18.14,-5.32,-17.55,-7.33,-16.83
2007-05-12 01:00,-14.45,-9.33,-13.41,-9.95,-9.95,-8.63,-10.70,-10.87,-10.08,-11.51,-9.96,-11.89,-7.86,-11.22,-7.28,-13.03,-6.42,-14.75,-5.86,-15.20,-5.14,-16.44,-3.77,-17.79,-2.00,-17.75,-1.27,-17.73,-2.43,-19.04,-5.51,-20.23,-7.98,-20.71,-9.65,-19.77,-10.16,-17.52,-10.48,-15.84,-10.20,-13.75
2007-05-12 02:00,-11.73,-22.11,-11.59,-21.23,-8.03,-16.94,-5.96,-23.10,-4.70,-24.07,-2.70,-25.74,-1.21,-25.47,0.03,-24.76,-1.25,-26.01,-3.66,-26.36,-5.46,-26.31,-7.48,-26.22,-8.42,-24.94,-10.54,-22.57,-10.34,-21.88,-10.37,-22.10,-10.52,-23.62,-11.27,-23.23,-9.46,-22.33,-8.25,-21.53,-6.20,-20.03
2007-05-12 03:00,-8.69,-14.53,-6.15,-15.92,-4.67,-8.73,-9.05,-12.76,-10.13,-12.99,-10.80,-13.21,-9.89,-14.07,-8.88,-14.59,-8.84,-16.36,-6.52,-17.41,-5.26,-18.05,-6.47,-18.86,-7.94,-19.54,-7.40,-19.89,-6.80,-19.81,-7.67,-20.71,-8.37,-21.46,-8.60,-21.74,-8.68,-20.82,-7.11,-19.48,-5.27,-16.06
2007-05-12 04:00,-1.70,-6.52,-4.34,-3.17,-5.10,-2.78,-1.28,-5.87,0.38,-10.06,0.14,-13.60,-0.42,-15.78,0.03,-14.90,-0.24,-13.72,-1.46,-12.54,-1.16,-11.50,-2.20,-11.51,-3.30,-13.02,-4.55,-14.36,-6.43,-15.70,-8.70,-17.16,-10.73,-18.02,-11.08,-18.23,-6.87,-17.94,-2.84,-16.76,-0.44,-14.73
2007-05-12 05:00,3.10,-2.47,2.88,4.80,2.91,4.71,3.87,3.65,4.28,3.04,3.96,3.05,2.09,2.66,0.45,0.88,-0.57,0.13,-0.83,1.94,-1.46,4.26,-3.23,4.22,-5.10,4.46,-6.51,5.27,-7.29,3.76,-6.46,2.14,-2.81,0.26,0.75,-0.71,2.18,-0.25,4.32,1.27,5.05,1.61
2007-05-12 06:00,9.49,12.69,9.57,13.76,6.41,11.18,2.78,9.70,-0.51,7.19,-1.78,1.95,-2.55,0.76,-2.02,2.71,-0.43,3.64,-0.06,5.12,0.23,5.53,-0.81,5.51,-0.79,5.10,-0.29,4.84,-1.12,4.16,-1.04,2.92,1.14,0.36,2.32,-1.36,3.83,-2.14,4.44,-3.73,5.90,-3.36
2007-05-12 07:00,12.05,15.18,14.09,16.04,10.25,12.30,8.20,15.42,2.69,14.92,-1.43,14.34,-2.10,13.82,-0.50,12.44,1.44,11.27,0.66,11.76,-0.13,11.92,-2.46,12.65,-3.17,11.90,-4.04,12.67,-3.92,12.61,-1.47,11.50,-0.19,10.12,1.03,8.94,1.01,7.04,1.76,6.33,2.29,6.30
2007-05-12 08:00,0.55,15.39,3.50,16.65,5.85,12.58,6.25,16.27,5.52,16.25,3.93,17.63,0.61,17.83,-1.25,18.71,-1.13,20.00,-0.36,20.88,-0.43,20.75,-0.10,22.01,0.73,22.07,1.38,21.01,2.60,20.14,3.16,19.38,4.04,16.30,5.52,13.94,7.15,12.46,8.52,10.49,9.04,9.50
2007-05-12 09:00,11.77,22.33,11.70,17.28,11.76,6.90,12.61,14.42,12.27,17.14,11.55,17.44,6.74,15.38,4.74,14.11,6.80,14.87,7.87,14.48,7.98,12.83,7.31,12.94,7.32,13.57,7.82,15.30,6.94,13.76,7.31,12.94,7.60,10.72,8.31,9.48,9.17,7.44,10.19,5.56,10.41,5.21
2007-05-12 10:00,-6.36,11.72,-2.88,9.37,-0.92,2.23,-1.49,7.29,1.40,8.11,2.94,7.55,1.31,8.40,-0.15,8.35,1.52,9.72,1.04,9.57,0.84,8.88,2.19,7.94,4.31,7.88,4.80,6.99,4.04,6.43,3.71,5.49,2.85,5.53,2.21,4.91,3.25,3.97,4.05,2.45,4.70,1.39
2007-05-12 11:00,-10.18,2.95,-7.77,2.98,-7.77,-1.64,-8.05,1.21,-6.51,0.02,-1.67,-2.00,0.80,-4.15,0.62,-3.58,-0.25,-4.49,-0.19,-4.99,1.02,-4.19,0.89,-4.44,0.57,-4.75,1.45,-5.52,1.48,-5.62,1.79,-6.25,0.41,-7.22,0.38,-7.44,-0.09,-7.27,0.63,-7.88,1.45,-7.83
2007-05-12 12:00,-7.22,-8.29,-8.32,-9.79,-8.26,-15.55,-3.12,-11.28,-1.29,-11.75,-2.89,-11.00,-5.43,-8.98,-5.88,-9.85,-3.22,-11.63,0.21,-12.84,-0.68,-11.34,-0.21,-11.51,0.44,-12.56,0.82,-12.44,1.38,-12.89,0.20,-11.80,-1.32,-11.65,-2.46,-12.02,-3.61,-12.70,-3.65,-13.24,-3.64,-12.29
2007-05-12 13:00,-14.47,-18.79,-14.37,-18.13,-13.20,-17.86,-10.08,-21.69,-8.73,-22.31,-10.35,-20.20,-11.28,-18.93,-11.44,-21.39,-9.33,-24.71,-8.30,-27.95,-8.97,-28.79,-9.33,-27.33,-9.41,-26.10,-9.52,-25.08,-8.07,-25.04,-7.77,-26.31,-7.49,-26.53,-7.80,-25.90,-8.24,-25.83,-9.37,-25.24,-8.81,-23.38
2007-05-12 14:00,-19.01,-12.47,-15.57,-15.36,-8.47,-14.25,-6.66,-20.91,-4.82,-27.99,-3.18,-30.83,-1.85,-30.72,-1.82,-28.82,-3.35,-26.68,-3.86,-27.05,-2.69,-29.72,-2.18,-31.66,-3.58,-30.22,-4.48,-29.04,-4.21,-27.59,-4.01,-26.26,-4.42,-26.60,-6.39,-27.02,-4.85,-28.21,-5.42,-27.76,-5.00,-22.80
2007-05-12 15:00,-19.88,-9.07,-15.35,-10.46,-11.82,-11.33,-10.78,-17.19,-9.60,-23.85,-8.22,-27.19,-5.26,-27.60,-4.33,-26.89,-5.35,-27.32,-6.77,-27.46,-7.31,-27.74,-6.98,-29.10,-5.97,-28.99,-5.89,-27.91,-5.95,-27.09,-5.22,-27.07,-6.02,-28.16,-7.27,-29.19,-8.00,-29.21,-8.56,-28.76,-6.46,-25.15
2007-05-12 16:00,-7.81,-2.49,-4.67,-6.42,-3.76,-11.91,-0.22,-12.46,-0.30,-16.16,-1.25,-18.77,-2.39,-18.50,-3.06,-16.72,-4.43,-15.06,-5.50,-14.35,-6.04,-14.94,-5.25,-17.11,-3.97,-18.48,-2.09,-20.09,-0.69,-21.84,-1.23,-22.12,-2.50,-22.11,-2.45,-20.94,-1.30,-19.62,-0.02,-16.38,2.96,-13.54
2007-05-12 17:00,1.45,-0.59,1.87,-4.86,-0.06,-9.36,-1.23,-11.94,-2.69,-12.30,-4.08,-9.91,-4.77,-9.08,-5.73,-10.33,-6.29,-12.19,-4.80,-14.23,-4.11,-14.75,-2.53,-14.45,-3.93,-15.32,-5.30,-15.97,-5.99,-16.08,-5.50,-14.67,-3.20,-14.98,-2.45,-13.38,-1.08,-12.73,0.83,-11.49,2.66,-9.65
2007-05-12 18:00,8.07,25.04,8.61,25.32,7.65,19.45,10.35,17.89,11.13,12.16,7.38,5.50,4.50,1.02,3.90,-1.38,4.45,-1.10,4.67,-0.50,3.67,0.02,2.90,-0.86,3.06,-3.01,2.73,-3.96,1.60,-3.69,1.77,-2.58,3.31,-3.46,6.61,-2.30,7.53,-2.53,8.69,-2.89,10.50,-4.63
2007-05-12 19:00,6.16,23.80,6.15,23.17,5.71,16.31,7.45,20.75,8.44,21.59,8.80,20.13,7.34,17.14,4.99,13.98,0.67,10.40,-3.10,7.72,-3.18,8.64,-0.81,10.76,-0.51,12.12,-1.83,12.96,-1.11,12.03,-0.81,10.76,-0.03,10.28,2.34,10.09,4.51,9.21,6.09,8.56,4.76,6.45
2007-05-12 20:00,2.74,26.28,3.13,24.41,4.86,14.04,5.43,18.84,6.32,19.02,3.85,18.86,0.43,19.03,-2.51,18.72,-5.00,16.67,-5.88,12.50,-3.41,12.98,-1.14,14.75,-2.15,14.95,-3.86,14.72,-5.01,14.04,-5.29,14.27,-5.87,13.45,-5.67,14.15,-3.34,13.10,0.71,10.62,1.85,8.36
2007-05-12 21:00,4.23,21.29,4.96,19.01,5.96,13.24,5.33,15.87,4.47,15.91,2.75,17.04,-0.97,18.17,-2.76,16.23,0.69,14.60,4.09,13.17,6.40,13.49,6.81,15.50,4.74,16.73,4.51,16.45,4.17,16.55,3.75,16.21,2.37,16.92,1.80,17.05,2.01,16.39,2.47,14.96,3.58,13.11
2007-05-12 22:00,15.36,18.65,14.31,18.32,14.02,13.29,13.65,13.80,14.08,12.47,13.60,12.63,10.63,15.04,7.70,16.00,4.67,13.67,1.88,13.20,1.13,11.91,1.43,10.64,2.53,10.15,3.16,11.82,1.69,13.13,0.49,13.91,0.20,13.19,1.40,12.73,2.23,11.42,1.82,11.39,1.28,11.12
2007-05-12 23:00,3.83,10.04,4.92,8.92,3.20,5.75,-0.15,8.03,-1.95,10.40,-3.38,9.94,-4.19,8.85,-3.62,8.40,-4.46,9.70,-4.46,9.70,-3.69,8.27,-2.45,6.36,-0.95,4.63,-1.62,4.10,-0.52,3.61,0.72,4.01,1.48,4.25,2.33,3.89,3.39,3.18,3.57,1.98,3.06,1.61
2007-05-13 00:00,-4.62,4.61,-7.22,1.90,-6.84,-0.61,-7.09,-5.41,-5.52,-6.38,-6.57,-6.40,-6.13,-7.10,-5.70,-5.18,-8.14,-3.44,-8.63,-4.54,-8.61,-3.27,-8.79,-2.70,-8.07,-4.99,-7.93,-6.41,-7.43,-7.62,-6.29,-6.94,-5.61,-8.40,-5.74,-8.65,-6.70,-9.28,-8.56,-9.03,-9.07,-9.40
2007-05-13 01:00,-2.91,-12.26,-3.74,-12.95,-0.69,-9.67,-2.06,-14.93,-2.80,-18.84,-1.64,-17.21,-2.60,-13.22,-6.97,-13.35,-9.18,-15.32,-9.54,-11.86,-9.92,-11.67,-11.01,-14.85,-13.41,-15.20,-14.30,-15.38,-9.96,-14.51,-6.96,-14.71,-6.14,-15.29,-6.95,-14.40,-8.81,-13.83,-10.47,-14.57,-11.40,-13.61
2007-05-13 02:00,-8.44,-22.22,-7.73,-21.15,-7.57,-18.37,-10.78,-21.49,-11.69,-20.94,-11.48,-19.93,-11.26,-17.66,-11.46,-15.73,-10.72,-14.44,-12.11,-14.36,-13.92,-15.25,-13.95,-14.84,-14.26,-14.84,-13.37,-16.65,-12.67,-18.53,-12.41,-18.34,-13.79,-17.31,-14.63,-16.32,-15.31,-14.86,-15.84,-14.50,-15.69,-14.98
2007-05-13 03:00,-10.88,-22.16,-13.77,-20.66,-10.40,-14.45,-14.23,-22.18,-12.08,-20.02,-9.51,-18.88,-10.66,-19.88,-11.68,-22.94,-10.70,-23.04,-11.03,-21.68,-11.33,-20.73,-12.44,-20.24,-12.54,-21.22,-11.66,-21.36,-11.78,-20.97,-11.31,-21.46,-10.37,-22.10,-10.73,-22.95,-10.97,-24.18,-11.72,-23.47,-11.66,-21.67
2007-05-13 04:00,-5.45,-22.73,-8.43,-18.33,-9.30,-12.63,-13.47,-17.00,-10.80,-18.14,-6.26,-19.21,-2.22,-18.03,-3.18,-18.33,-4.50,-18.13,-4.85,-18.34,-5.17,-18.66,-4.15,-17.91,-3.57,-17.10,-3.69,-16.40,-3.70,-14.72,-4.77,-14.33,-4.45,-14.02,-4.51,-13.83,-5.34,-14.19,-5.51,-15.62,-4.23,-16.68
2007-05-13 05:00,-1.86,-6.68,-5.28,-5.15,-5.77,-3.94,-8.89,-7.35,-5.71,-11.06,-2.78,-14.32,-1.47,-16.11,-2.98,-15.33,-4.26,-14.27,-5.73,-12.64,-6.45,-10.04,-6.98,-9.37,-7.25,-8.19,-7.65,-9.26,-7.23,-8.92,-6.30,-8.20,-5.56,-6.60,-4.76,-6.14,-3.14,-5.94,-1.56,-5.64,-0.39,-5.37
2007-05-13 06:00,-0.46,-1.51,-3.24,1.27,-3.97,1.25,-2.05,-2.12,1.98,-5.56,-0.10,-5.60,1.08,-4.69,2.62,-2.94,3.16,-0.04,0.85,2.27,-1.10,3.11,-1.69,3.66,-1.64,2.84,-0.37,0.51,2.23,-1.39,4.64,-1.04,6.78,0.80,8.18,1.35,9.06,0.90,10.10,0.91,9.72,1.11
2007-05-13 07:00,6.01,10.11,2.07,11.26,-0.55,11.27,-2.52,13.47,-2.00,13.85,-1.54,13.05,0.80,10.33,2.77,6.45,5.08,3.82,4.76,3.51,5.18,7.11,6.17,10.26,4.64,11.45,3.50,11.72,2.94,9.86,4.18,7.95,4.71,7.28,6.08,8.24,7.69,8.12,8.04,8.02,9.11,7.32
2007-05-13 08:00,11.11,0.71,9.27,2.85,7.13,3.96,7.61,6.10,6.32,9.79,4.61,16.48,3.43,21.14,2.22,20.02,3.31,19.22,4.83,19.07,5.78,19.38,6.22,18.99,7.09,19.90,6.93,22.37,6.47,21.49,6.98,21.23,6.72,20.72,8.16,19.82,10.93,18.71,12.40,17.39,13.34,16.75
2007-05-13 09:00,5.05,21.35,2.71,24.06,-1.18,26.71,-0.80,31.13,1.39,32.15,2.37,31.72,4.97,30.14,7.87,29.28,9.10,28.73,10.49,26.65,8.46,23.17,8.33,20.92,9.27,19.65,10.15,19.83,9.96,19.45,9.49,19.61,9.66,18.41,10.89,18.49,12.17,19.10,13.23,18.08,14.27,17.46
2007-05-13 10:00,5.61,23.20,8.11,25.89,7.17,26.54,5.80,27.88,7.15,27.58,8.87,26.14,9.30,24.80,8.74,23.26,7.64,21.44,6.93,19.74,5.98,19.75,4.29,18.48,4.77,16.95,6.10,17.06,7.58,16.38,7.80,16.66,6.59,18.16,4.55,16.67,6.40,18.42,7.26,18.69,7.91,17.64
2007-05-13 11:00,-2.52,13.47,1.70,12.09,4.36,11.99,7.94,14.92,6.24,15.32,5.16,15.08,4.15,15.29,3.48,15.07,4.37,14.93,4.40,15.47,3.30,13.34,3.24,11.22,3.31,9.03,5.14,8.88,6.23,9.76,7.41,10.34,9.06,11.08,9.14,10.16,9.58,9.46,9.09,8.68,7.56,7.87
2007-05-13 12:00,-10.93,3.33,-7.31,4.49,-3.32,2.51,-4.65,5.02,-2.30,5.88,0.78,6.44,1.41,6.12,1.10,4.76,3.19,4.48,4.10,4.25,3.16,2.27,2.53,-0.35,1.04,-0.61,-0.50,-2.05,-1.09,-3.50,1.76,-3.22,3.03,-2.60,2.79,-1.84,2.39,-1.23,2.36,-1.14,1.02,-1.56
2007-05-13 13:00,-8.09,2.67,-5.78,3.30,-0.85,0.36,-4.32,-1.59,-5.75,-4.67,-4.53,-5.54,-2.82,-5.62,-1.51,-6.78,-0.70,-7.99,0.13,-9.93,0.30,-10.82,-1.26,-11.84,-1.54,-11.93,-1.18,-12.76,-0.59,-13.94,-0.23,-15.40,0.22,-14.84,-0.70,-12.61,-2.08,-11.90,-3.32,-11.98,-4.05,-10.32
2007-05-13 14:00,-16.96,-10.66,-13.28,-9.38,-6.51,-9.85,-9.88,-8.19,-10.45,-10.68,-8.33,-13.37,-6.53,-16.36,-4.66,-18.28,-4.51,-21.07,-4.38,-23.44,-5.28,-24.57,-5.07,-25.55,-4.12,-27.87,-3.71,-28.16,-3.93,-27.50,-4.59,-27.08,-4.75,-27.86,-5.24,-28.65,-5.01,-28.05,-5.08,-26.18,-5.60,-25.20
2007-05-13 15:00,-11.09,-11.62,-5.44,-9.61,-5.22,-9.96,-8.92,-9.88,-8.82,-14.78,-6.66,-21.55,-6.24,-25.50,-7.94,-27.10,-9.38,-28.82,-10.52,-28.87,-10.33,-28.49,-8.53,-28.54,-5.95,-29.71,-5.06,-29.54,-6.88,-28.44,-9.28,-27.84,-11.14,-27.59,-11.82,-26.13,-12.51,-25.93,-12.08,-24.32,-9.55,-22.36
2007-05-13 16:00,-7.05,-17.05,-5.75,-16.53,-7.65,-17.14,-8.53,-23.93,-6.97,-28.47,-7.06,-30.17,-10.17,-30.64,-11.50,-31.07,-10.55,-30.76,-9.41,-30.71,-6.69,-31.00,-3.90,-30.22,-3.49,-27.88,-5.92,-27.50,-8.39,-27.66,-10.88,-27.09,-13.11,-25.70,-12.96,-23.87,-10.67,-23.14,-10.15,-22.13,-7.76,-20.43
2007-05-13 17:00,-0.36,-13.03,-0.83,-12.54,-1.67,-11.87,-4.81,-17.17,-3.43,-21.14,-4.33,-21.64,-7.05,-21.98,-6.43,-23.26,-5.15,-24.32,-3.19,-24.53,-2.84,-24.00,-2.19,-23.06,-2.28,-22.14,-3.32,-22.47,-3.89,-22.34,-4.83,-21.38,-6.07,-19.78,-6.00,-18.71,-3.50,-16.34,-2.57,-15.31,-0.62,-13.53
2007-05-13 18:00,6.20,-4.63,2.01,-8.28,1.29,-7.67,1.22,-11.05,-2.61,-11.54,-3.66,-13.87,-1.54,-13.93,-0.48,-12.96,-2.00,-10.82,-2.62,-9.55,-5.00,-7.68,-9.04,-7.19,-11.10,-7.01,-7.82,-7.74,-3.18,-9.10,0.65,-8.61,2.81,-7.50,5.16,-7.28,5.46,-8.23,6.27,-9.13,8.28,-7.85
2007-05-13 19:00,14.67,9.30,16.09,7.13,10.62,1.92,9.46,5.22,7.49,4.81,5.06,2.24,0.25,-0.13,-2.69,-0.12,-4.08,-0.36,-3.77,-0.68,-3.88,-1.97,-3.14,-1.00,-0.85,0.67,0.19,2.69,-0.09,5.22,-0.15,5.41,1.08,3.18,3.56,1.03,5.95,0.11,7.73,1.42,9.00,1.40
2007-05-13 20:00,21.72,11.87,21.54,14.75,17.44,8.19,15.06,12.68,12.59,12.20,10.95,10.74,7.49,9.11,3.31,8.72,2.62,9.87,1.02,10.61,-0.15,10.66,0.14,11.07,-0.13,14.87,-0.36,16.58,-0.41,15.09,0.64,13.12,4.23,11.74,8.64,10.74,9.93,9.68,10.66,9.70,10.35,10.65